Flag for U.S.A. Weather past 2 weeks in Prescott, Arizona, U.S.A.

Now
68 °F

Clear.


Feels Like: 68 °F
Forecast: 58 / 74 °F
Wind: 9 mph from Southwest

Location: Love Field

Current Time: Aug 21, 2014 at 12:16:22 AM

Latest Report: Aug 20, 2014 at 11:53 PM


Visibility: 10 mi

Pressure: 29.91 "Hg

Humidity: 55%

Dew point: 51 °F

Location of PrescottLocation

Historic Weather in Prescott — Graph

°F

Prescott temperature yesterday

Maximum temperature yesterday: 77 °F (at 2:53 PM)
Minimum temperature yesterday: 54 °F (at 3:53 AM)
Average temperature yesterday: 67 °F

Past Weeks' High & Low Weather Summary

 TemperatureHumidityPressure
High93 °F (Aug 10, 2:53 PM)93% (Aug 19, 4:53 AM)30.23 "Hg (Aug 19, 4:53 AM)
Low54 °F (Aug 20, 3:53 AM)10% (Aug 7, 2:53 PM)29.81 "Hg (Aug 18, 2:53 PM)
Average73 °F51%29.93 "Hg
* Reported Aug 5 10:53 PM — Aug 20 10:53 PM, Prescott, Weather by CustomWeather, © 2014

Note: Actual official high and low records may vary slightly from our data, if they occured in-between our weather recording intervals... More about our weather records

Advertising

Prescott weather history for previous 24 hours

 ConditionsComfort  
Time TempWeatherWind HumidityBarometerVisibility
10:53 PM
Aug 20
66 °FClear.7 mph59%29.92 "Hg10 mi
9:53 PM67 °FClear.7 mph59%29.91 "Hg10 mi
8:53 PM68 °FClear.7 mph55%29.91 "Hg10 mi
7:53 PM69 °FClear.3 mph57%29.89 "Hg10 mi
6:53 PM73 °FPassing clouds.3 mph48%29.88 "Hg10 mi
5:53 PM73 °FScattered clouds.5 mph48%29.89 "Hg10 mi
4:53 PM75 °FPartly sunny.6 mph39%29.89 "Hg10 mi
3:53 PM77 °FThunderstorms. Scattered clouds.7 mph39%29.90 "Hg10 mi
2:53 PM77 °FBroken clouds.15 mph39%29.91 "Hg10 mi
1:53 PM75 °FMostly cloudy.9 mph47%29.93 "Hg10 mi
12:53 PM76 °FBroken clouds.No wind43%29.94 "Hg10 mi
11:53 AM75 °FScattered clouds.No wind47%29.95 "Hg10 mi
10:53 AM76 °FScattered clouds.3 mph48%29.96 "Hg10 mi
9:53 AM72 °FPassing clouds.3 mph55%29.96 "Hg10 mi
8:53 AM69 °FSunny.3 mph61%29.96 "Hg10 mi
7:53 AM63 °FSunny.3 mph78%29.97 "Hg10 mi
6:53 AM57 °FSunny.No wind87%29.97 "Hg10 mi
5:53 AM54 °FSunny.3 mph90%29.94 "Hg10 mi
4:53 AM55 °FClear.No wind87%29.93 "Hg10 mi
3:53 AM54 °FClear.No wind90%29.94 "Hg10 mi
2:53 AM55 °FClear.No wind90%29.93 "Hg10 mi
1:53 AM55 °FClear.No wind90%29.91 "Hg10 mi
12:53 AM55 °FClear.No wind90%29.90 "Hg10 mi
Weather by CustomWeather, © 2014

See weather overviewHow to use our weather pages